Oliver, British Columbia

2:15 AM PDT on May 23, 2017 (GMT -0700)
Oliver

Weather History for 71215 - May, 2013

Change the Weather History Date:

Saturday, May 11, 2013

  Actual Average Record
Temperature  
Mean Temperature 68 °F -  
Max Temperature 85 °F - - ()
Min Temperature 52 °F - - ()
Cooling Degree Days 4    
Growing Degree Days 18 (Base 50)    
Moisture  
Dew Point 47 °F    
Average Humidity 45    
Maximum Humidity 85    
Minimum Humidity 22    
Precipitation  
Precipitation 0.00 in - - ()
Sea Level Pressure  
Sea Level Pressure 30.01 in    
Wind  
Wind Speed 2 mph ()    
Max Wind Speed 5 mph    
Max Gust Speed -    
T = Trace of Precipitation, MM = Missing Value Source: Averaged Metar Reports

Daily Weather History Graph

Daily Weather History Graph

Search for Another Location

Airport or City:

Trip Planner

Search our weather history database for the weather conditions in past years. The results will help you decide how hot, cold, wet, or windy it might be!

Date:

Astronomy

May. 11, 2013 Rise Set
Actual Time 5:20 AM PDT 8:28 PM PDT
Civil Twilight 4:42 AM PDT 9:06 PM PDT
Nautical Twilight 3:54 AM PDT 9:55 PM PDT
Astronomical Twilight 2:52 AM PDT 10:57 PM PDT
Moon 6:29 AM PDT (5/11) 10:16 PM PDT (5/11)
Length of Visible Light 16h 23m
Length of Day
15h 08m
Waxing Crescent, 3% of the Moon is Illuminated
May 11
Waxing Crescent
May 17
First Quarter
May 24
Full
May 31
Last Quarter
Jun 8
New

Hourly Weather History & Observations

Time (PDT) Temp. Dew Point Humidity Pressure Visibility Wind Dir Wind Speed Gust Speed Precip Events Conditions
12:00 AM 61.5 °F 51.6 °F 70% 30.06 in - South 1.2 mph - N/A   Unknown
1:00 AM 59.2 °F 50.9 °F 74% 30.07 in - North 1.2 mph - N/A   Unknown
2:00 AM 57.4 °F 49.5 °F 75% 30.07 in - NE 1.2 mph - N/A   Unknown
4:00 AM 56.7 °F 49.1 °F 76% 30.09 in - West 1.2 mph - N/A   Unknown
5:00 AM 54 °F 49 °F 77% 30.09 in - ENE 1.2 mph - -  
5:00 AM 53.6 °F 48.7 °F 84% 30.09 in - ENE 1.2 mph - N/A   Unknown
6:00 AM 52.9 °F 48.6 °F 85% 30.09 in - North 1.2 mph - N/A   Unknown
7:00 AM 58.1 °F 51.3 °F 78% 30.10 in - SSW 1.2 mph - N/A   Unknown
8:00 AM 63.9 °F 44.4 °F 49% 30.09 in - Calm Calm - N/A   Unknown
9:00 AM 67.1 °F 45.0 °F 45% 30.09 in - North 1.2 mph - N/A   Unknown
10:00 AM 71.8 °F 40.6 °F 32% 30.08 in - SSE 1.2 mph - N/A   Unknown
11:00 AM 74 °F 44 °F 24% 30.06 in - SSE 1.2 mph - -  
11:00 AM 74.5 °F 44.2 °F 34% 30.06 in - SSE 1.2 mph - N/A   Unknown
12:00 PM 77.4 °F 42.8 °F 29% 30.03 in - SW 3.5 mph - N/A   Unknown
1:00 PM 79.2 °F 41.4 °F 26% 30.01 in - SSW 3.5 mph - N/A   Unknown
2:00 PM 84.6 °F 42.1 °F 22% 29.99 in - ESE 2.3 mph - N/A   Unknown
3:00 PM 82.6 °F 43.3 °F 25% 29.98 in - SW 3.5 mph - N/A   Unknown
4:00 PM 81.3 °F 46.0 °F 29% 29.97 in - South 3.5 mph - N/A   Unknown
5:00 PM 83 °F 51 °F 22% 29.95 in - ESE 1.2 mph - -  
5:00 PM 83.3 °F 50.7 °F 32% 29.95 in - ESE 1.2 mph - N/A   Unknown
6:00 PM 83.7 °F 47.5 °F 28% 29.93 in - SSE 2.3 mph - N/A   Unknown
7:00 PM 83.3 °F 45.1 °F 26% 29.91 in - South 3.5 mph - N/A   Unknown
8:00 PM 78.6 °F 46.8 °F 32% 29.90 in - SE 2.3 mph - N/A   Unknown
9:00 PM 78.1 °F 41.4 °F 27% 29.90 in - ESE 3.5 mph - N/A   Unknown
10:00 PM 72.3 °F 49.5 °F 44% 29.91 in - South 3.5 mph - N/A   Unknown
11:00 PM 71 °F 49 °F 35% 29.90 in - SE 4.6 mph - -  
11:00 PM 71.2 °F 49.3 °F 46% 29.90 in - SE 4.6 mph - N/A   Unknown